Tracking 25734 objects as of 27-May-2022
HD Live streaming from Space Station
objects crossing your sky now

COSMOS 1818 COOLANT

Track COSMOS 1818 COOLANT now!
10-day predictions


NORAD ID: 50791
Int'l Code: 1987-011BG
Perigee: 770.5 km
Apogee: 800.6 km
Inclination: 65.0 °
Period: 100.4 minutes
Semi major axis: 7156 km
RCS: Unknown
Launch date: February 1, 1987
Source: Commonwealth of Independent States (former USSR) (CIS)
Launch site: TYURATAM MISSILE AND SPACE COMPLEX (TTMTR)

Note: This is SATELLITE DEBRIS
aabbcc
Your satellite tracking list
Your tracking list is empty




NASA's NSSDC Master Catalog

Two Line Element Set (TLE):
1 50791U 87011BG  22144.17391814  .00000709  00000-0  28873-3 0  9993
2 50791  65.0104  60.0231 0021033 249.2368 110.6464 14.33984298445191
Source of the keplerian elements: AFSPC